Lapse_Rate
5.9 6.0 6.0 6.0 5.9 6.0 6.0 6.1 6.3 6.4 6.5 6.6 6.6 6.5 6.6 6.7 6.8 7.1 7.3 7.3 7.5 7.6 7.8 7.7 7.8 7.7 7.8 7.3 6.8 6.9 7.1 7.3 6.8 6.4 6.1 5.9 5.7 5.4 5.8 5.9 6.2 6.1 6.4 6.5 6.6
5.8 5.8 5.8 5.8 5.8 6.0 6.0 6.0 6.0 6.2 6.4 6.5 6.6 6.8 6.7 6.7 6.7 6.8 6.9 7.3 7.6 7.7 7.9 7.8 7.6 7.7 7.7 7.4 7.2 6.8 7.0 7.1 6.6 6.2 6.1 6.0 6.0 5.8 5.9 6.2 6.5 6.3 6.1 6.2 6.6
5.7 5.7 5.8 5.8 5.8 5.6 5.7 5.9 6.0 6.0 6.1 6.3 6.4 6.6 6.8 6.9 6.8 6.9 6.9 7.1 7.3 7.5 7.5 7.3 7.2 7.6 7.8 7.4 7.5 7.3 7.3 7.2 6.9 6.6 6.0 6.1 6.0 6.0 6.2 6.5 6.4 6.6 6.3 6.3 6.4
5.6 5.5 5.5 5.5 5.6 5.6 5.7 5.6 5.7 5.9 6.1 6.2 6.2 6.4 6.7 6.8 6.6 6.5 6.7 6.8 7.1 7.4 7.4 7.3 7.4 7.7 8.0 8.0 7.6 7.5 7.4 7.2 7.0 6.6 6.2 6.1 6.2 6.4 6.3 6.5 6.5 6.6 6.5 6.3 6.2
5.4 5.5 5.4 5.4 5.5 5.6 5.6 5.6 5.7 5.7 5.9 6.0 6.2 6.4 6.6 6.9 6.8 6.7 6.7 6.6 6.8 7.2 7.6 7.3 7.5 7.7 8.0 7.9 7.6 7.8 7.6 7.0 7.1 6.9 6.7 5.9 6.4 6.5 6.4 6.5 6.7 6.8 6.8 6.2 6.2
5.5 5.4 5.4 5.4 5.5 5.6 5.6 5.6 5.6 5.7 5.5 5.8 5.9 6.2 6.4 6.9 6.8 6.9 6.9 6.7 6.7 7.0 7.3 7.2 7.2 7.5 7.7 7.7 7.8 7.6 7.2 7.4 7.1 7.2 7.1 6.7 6.3 6.4 6.5 6.5 6.7 7.0 6.7 6.5 6.1
5.6 5.5 5.5 5.5 5.6 5.6 5.5 5.5 5.6 5.7 5.6 5.5 5.7 6.0 6.3 6.7 6.6 6.7 7.0 6.8 6.7 6.8 7.0 7.3 7.1 7.1 7.4 7.5 7.6 7.5 7.6 7.3 7.5 7.7 7.6 7.2 6.4 6.7 6.6 6.6 6.6 6.9 6.6 6.4 6.1
5.7 5.6 5.7 5.7 5.8 5.7 5.8 5.5 5.7 5.7 5.8 5.7 5.7 5.8 6.3 6.3 6.7 6.5 6.5 6.9 6.8 6.7 6.6 7.0 6.8 6.8 7.2 7.4 7.2 7.1 7.4 7.1 7.8 7.9 7.7 7.2 6.9 6.8 6.6 6.4 6.8 6.8 6.5 6.3 6.0
5.7 6.0 6.2 6.2 6.4 6.6 6.1 6.3 6.4 6.3 6.2 5.9 5.7 5.7 6.2 6.4 6.4 6.6 6.8 6.8 6.5 6.4 6.3 6.5 6.7 7.0 7.1 7.1 7.3 7.2 7.4 7.6 7.6 7.6 7.6 7.0 6.7 6.9 6.6 6.4 6.7 6.7 6.5 6.3 5.9
5.9 6.0 6.2 6.7 7.1 7.1 6.7 6.8 7.0 7.1 6.8 6.7 6.3 5.9 5.9 6.2 6.3 6.5 6.9 6.6 6.3 6.2 6.0 6.3 6.5 6.7 6.9 6.8 6.9 7.1 7.2 7.8 7.6 6.9 7.3 7.2 6.6 7.2 7.4 6.8 6.8 6.7 6.3 6.3 6.2
6.0 6.0 6.1 7.0 7.1 7.1 7.1 7.0 7.2 7.7 7.7 7.5 7.1 6.8 6.3 6.1 5.9 6.2 6.7 6.6 6.2 6.0 6.0 6.1 6.4 6.4 6.9 6.9 7.3 7.2 8.0 8.1 7.4 7.2 7.4 7.2 6.9 7.5 7.7 7.2 6.9 7.0 6.5 6.3 6.3
6.1 6.1 6.1 6.9 6.9 6.9 7.3 7.5 7.8 7.6 8.2 8.0 8.3 8.1 7.2 6.4 6.3 5.9 6.4 6.4 6.1 6.1 6.0 6.0 6.4 6.9 7.1 6.9 7.0 7.3 7.9 8.1 8.0 7.7 7.5 7.2 6.7 6.9 7.4 7.5 7.2 7.0 7.2 6.6 6.1
6.4 6.5 6.5 6.7 6.7 6.7 7.0 7.4 7.6 7.9 8.1 8.1 8.2 8.0 7.8 7.2 7.0 6.5 6.3 6.5 6.2 6.1 6.1 6.2 6.9 6.7 6.7 6.8 6.9 7.4 7.8 7.6 8.0 7.8 7.4 7.6 6.9 6.7 7.1 7.0 6.7 6.7 6.6 6.8 6.3
6.7 6.6 6.7 6.5 6.6 6.6 6.8 7.1 7.2 7.4 7.7 7.9 8.0 7.9 8.0 7.5 7.2 6.8 6.5 6.3 6.2 6.3 6.3 6.3 6.4 6.4 6.4 6.8 7.1 7.3 7.4 7.7 8.0 7.7 7.8 7.3 6.8 7.2 7.0 7.1 6.9 6.8 7.0 7.1 7.0
6.7 6.7 6.6 6.8 6.5 6.6 6.7 6.7 6.8 7.1 6.3 7.6 7.8 7.9 8.2 7.9 7.6 7.1 6.7 6.6 6.4 6.3 6.1 6.2 6.5 6.5 6.5 6.8 6.8 7.1 7.3 7.6 8.0 7.9 7.9 7.2 6.9 7.4 6.7 6.8 7.2 7.3 7.2 7.3 7.3
6.7 6.9 6.7 7.0 6.9 6.7 6.6 6.5 6.6 6.8 6.4 7.2 7.4 7.7 8.2 8.3 8.1 7.7 7.1 6.7 6.7 6.6 6.3 6.4 6.6 6.8 6.8 7.2 7.1 7.3 7.8 7.8 8.1 8.3 6.9 7.6 7.0 7.1 7.1 7.7 7.4 7.2 7.2 7.1 7.2
7.0 6.9 7.0 7.2 7.2 6.9 6.5 6.4 6.4 6.5 6.8 6.7 7.0 7.6 7.9 8.1 8.0 8.3 7.7 6.8 6.5 6.4 6.3 6.4 6.4 6.7 6.9 6.9 6.9 7.2 7.5 7.4 7.3 7.1 5.3 7.9 7.0 6.9 7.7 7.5 7.7 7.6 7.4 7.3 7.2
7.0 7.0 7.0 7.2 7.0 6.9 6.5 6.2 6.1 6.0 6.2 6.4 6.8 7.0 7.6 7.9 7.9 8.5 7.8 7.2 6.7 6.5 6.5 6.6 6.3 6.4 6.8 6.7 6.9 7.0 7.4 7.5 6.6 5.4 5.4 7.3 6.2 7.4 8.2 8.1 7.9 7.6 7.4 7.1 7.4
6.9 6.9 6.8 6.7 6.6 6.6 6.4 6.0 5.7 5.6 5.7 5.8 6.6 7.1 7.4 7.5 7.8 7.7 7.5 7.1 6.5 6.9 6.8 6.3 6.3 6.6 7.0 7.0 7.0 6.8 7.1 7.8 7.7 6.9 7.4 7.8 7.2 8.2 8.0 8.0 7.8 7.4 7.3 7.5 7.7
6.8 6.6 6.6 6.3 6.2 6.4 6.3 5.9 5.4 5.4 5.2 5.6 5.9 6.4 6.8 7.5 7.7 7.6 7.4 6.9 6.4 6.7 6.9 6.3 6.4 6.8 7.1 7.3 7.3 7.1 7.5 7.5 7.3 6.5 6.9 6.5 7.4 8.0 8.0 8.7 8.3 8.1 8.1 8.0 7.9
7.0 6.7 6.7 6.2 6.1 6.1 6.0 5.6 5.0 5.0 5.1 5.5 5.5 5.8 6.0 6.7 7.1 7.1 6.7 7.0 6.9 6.8 6.6 6.1 6.4 7.0 7.4 7.2 7.3 7.1 7.2 7.8 7.8 7.8 5.4 5.5 6.9 8.3 8.4 8.6 8.4 8.3 8.2 8.4 8.1
7.1 7.0 6.8 6.2 6.0 5.7 5.6 5.3 5.1 4.8 5.0 5.2 5.4 5.4 5.5 6.0 6.6 6.9 7.1 6.8 6.8 6.9 6.9 6.1 6.3 6.9 7.1 7.4 7.5 7.5 7.6 7.5 7.8 7.2 7.3 7.2 7.5 8.6 8.7 8.8 8.8 9.0 8.9 8.8 8.4
7.2 6.9 6.9 6.2 5.8 5.6 5.4 5.3 5.1 4.9 4.9 4.8 5.3 5.3 5.3 5.4 6.0 6.4 6.6 6.7 7.0 6.8 6.6 6.5 5.9 6.8 7.5 7.5 7.6 7.6 7.6 7.6 7.6 7.9 7.7 6.7 7.2 8.6 8.9 8.8 8.6 9.0 9.1 8.8 8.3
6.9 6.6 6.4 5.9 5.5 5.3 5.3 5.2 5.1 4.9 4.9 4.7 4.7 4.9 5.4 5.4 5.5 5.7 6.3 6.4 6.8 6.9 6.6 6.5 6.5 6.0 6.6 6.7 6.4 6.8 7.0 7.4 7.6 7.5 7.4 7.0 7.3 8.5 8.8 8.8 8.8 8.7 9.1 8.7 8.0
6.8 6.6 6.3 5.8 4.8 5.0 5.1 5.0 5.0 4.8 4.7 4.7 4.7 4.8 4.6 5.0 5.1 4.7 5.2 5.8 6.1 6.7 6.8 6.4 6.8 6.8 6.6 6.8 6.3 6.5 6.6 7.1 7.5 7.6 7.5 7.6 7.3 8.3 8.6 8.5 8.7 8.7 8.8 8.7 8.4
6.7 6.4 6.3 5.9 5.4 5.0 4.7 4.4 4.7 4.8 4.8 4.8 4.8 4.8 4.7 4.8 4.6 4.5 4.4 4.8 5.5 5.9 6.3 6.5 6.8 7.1 6.9 7.0 6.8 6.7 7.1 7.1 7.6 7.6 7.5 7.7 7.6 8.0 8.6 8.6 8.6 8.7 8.8 8.6 8.7
6.8 6.7 6.2 5.8 5.3 4.8 4.4 4.1 4.3 4.4 4.5 5.1 5.6 5.9 6.0 5.9 5.7 5.4 4.9 4.6 4.7 5.3 6.0 6.4 6.8 7.1 7.2 7.3 6.9 7.0 7.3 7.4 7.3 7.5 7.6 7.7 8.2 8.2 8.5 8.8 8.6 8.6 8.5 8.7 8.5
Wind_Speed
23 23 23 24 26 27 27 26 26 25 25 24 22 19 19 20 19 1 7 9 6 17 16 11 3 5 4 4 3 2 2 1 4 5 4 7 5 2 4 9 3 4 6 9 17
24 24 25 25 25 25 26 26 26 25 25 24 23 20 18 18 3 7 11 5 7 23 10 13 7 8 3 4 3 3 2 6 5 3 4 10 11 8 4 8 2 7 14 18 18
25 26 26 27 27 27 27 26 25 24 25 23 21 20 17 13 5 6 6 15 16 18 9 6 9 7 3 3 4 5 5 5 4 6 7 9 8 5 9 5 6 18 20 20 18
27 27 27 28 29 29 29 29 27 25 24 22 18 17 17 2 3 3 9 13 13 9 8 6 7 7 5 6 6 3 8 7 4 3 8 12 11 7 12 5 9 19 23 21 19
27 28 29 29 29 30 31 30 28 27 24 20 15 11 5 3 10 5 6 13 8 7 7 7 6 5 5 5 4 7 5 6 9 5 8 12 12 6 13 1 17 19 20 19 15
28 28 30 31 32 32 32 30 28 26 27 19 10 5 3 4 4 4 9 6 3 6 6 6 8 6 4 4 3 4 6 7 8 10 12 13 6 9 7 11 18 19 19 16 15
29 30 30 32 33 34 35 36 29 27 25 14 8 5 3 14 1 10 2 5 6 6 6 5 4 6 4 3 3 5 6 6 2 5 8 11 3 8 12 15 18 17 17 14 14
30 31 32 32 33 34 37 37 32 24 10 5 11 2 7 4 3 8 3 4 4 5 1 3 4 2 1 4 5 1 3 1 3 5 9 11 14 4 16 18 16 16 15 14 11
30 31 32 33 34 35 38 37 24 5 9 16 4 1 9 4 2 6 6 5 6 4 2 5 6 4 2 3 5 5 3 3 1 2 12 3 4 8 14 16 16 15 14 13 10
29 30 32 34 35 37 42 30 3 10 5 4 3 2 3 5 5 7 3 4 3 7 2 4 4 3 3 4 5 3 1 1 2 4 6 4 2 11 14 16 17 15 13 14 13
30 31 32 35 37 36 18 4 6 4 6 5 5 5 9 8 5 4 3 4 3 4 6 5 4 6 7 7 4 1 2 3 1 1 4 4 6 14 14 11 13 13 13 13 15
30 30 32 34 33 35 3 6 7 4 9 8 11 7 9 3 5 4 2 5 5 5 3 4 7 9 9 6 4 4 3 3 2 4 6 5 2 8 13 14 16 16 15 16 12
29 29 31 33 37 4 3 5 2 5 2 8 4 4 5 7 6 7 3 3 4 6 5 6 3 8 6 5 6 3 4 3 3 2 5 6 3 6 7 6 9 10 13 13 15
29 29 27 33 4 4 4 3 7 5 4 7 4 2 2 4 3 5 5 4 1 9 8 5 4 6 5 4 5 2 7 5 2 3 3 1 4 6 8 12 12 13 14 15 16
28 29 23 18 4 3 5 11 6 3 3 9 6 2 8 2 7 3 2 4 7 6 6 7 6 6 4 6 5 5 6 2 2 3 2 1 3 6 8 13 18 18 18 18 16
29 28 26 2 2 7 15 8 3 5 4 7 6 8 7 8 9 7 1 2 3 4 1 7 2 6 10 4 8 4 2 5 4 3 1 8 7 5 8 20 19 16 20 21 19
32 32 15 6 3 7 8 3 4 3 5 7 5 7 3 8 9 9 6 10 5 3 4 3 3 2 3 5 2 4 6 2 2 1 6 5 5 8 9 14 20 22 22 22 22
36 23 2 4 9 9 3 5 2 2 3 3 6 4 6 9 6 12 4 6 8 7 3 6 4 6 3 7 6 6 8 5 6 5 3 4 6 6 11 14 19 14 16 16 19
26 4 2 3 4 1 5 4 2 1 3 5 2 6 7 5 3 7 7 9 4 8 4 3 5 5 4 5 10 4 5 6 4 2 2 3 6 9 8 7 8 16 9 17 19
3 4 3 14 3 4 5 2 1 2 4 4 3 4 6 8 6 7 6 7 8 8 2 3 2 3 4 4 2 7 8 4 3 4 4 4 3 8 4 9 8 10 17 18 14
3 3 3 15 3 5 3 3 3 3 2 4 2 4 3 3 3 4 5 3 10 10 5 5 1 6 1 3 8 2 1 6 5 4 6 2 7 7 9 10 8 12 15 15 14
2 2 3 3 4 2 1 2 5 4 6 5 4 4 2 2 3 4 3 3 9 7 5 3 2 3 7 4 4 3 8 7 5 4 2 2 7 4 8 9 8 10 9 9 12
2 2 4 3 2 3 5 3 4 5 4 2 3 2 1 1 3 3 4 3 10 7 6 6 3 4 3 5 5 6 2 4 5 3 6 6 6 2 5 9 5 5 7 9 10
2 4 4 5 1 3 4 4 5 7 4 3 2 4 3 2 5 1 3 3 8 4 9 3 1 4 4 4 2 4 4 1 5 4 3 6 6 7 9 8 8 2 5 6 8
3 1 1 3 4 4 3 4 3 6 5 5 2 2 3 2 2 0 3 5 5 8 6 4 3 3 6 10 4 5 5 3 5 5 6 5 7 11 9 7 8 3 6 6 7
2 2 3 1 2 2 4 4 4 4 2 4 4 4 2 3 2 2 1 1 4 5 6 5 3 2 4 7 7 5 8 7 5 2 6 5 7 6 8 8 7 9 5 7 9
2 2 3 4 3 2 2 3 4 4 2 3 2 2 2 2 3 4 5 4 4 2 2 3 2 1 4 4 5 3 5 2 0 7 3 4 5 12 8 11 6 6 5 7 9
Wind_Direction
355 352 349 346 344 341 338 335 333 330 327 324 324 324 326 329 323 306 258 222 182 162 124 131 78 145 166 191 225 135 44 264 201 163 227 155 125 121 77 133 163 168 151 148 145
350 348 346 343 341 337 333 329 327 324 322 320 319 320 324 331 302 255 254 235 151 154 130 154 158 145 174 202 213 129 130 228 196 197 198 175 137 130 112 156 90 80 107 131 145
346 345 344 340 338 334 330 325 322 318 317 315 313 314 321 326 314 252 339 209 172 171 143 145 140 141 188 166 204 182 212 220 249 238 157 156 134 132 133 239 203 153 146 151 153
344 342 341 338 335 331 328 323 320 317 312 307 305 308 317 299 304 45 27 150 170 179 129 145 134 159 169 208 196 198 234 254 263 273 153 167 138 152 163 244 139 156 153 155 162
342 340 339 336 332 327 325 321 319 315 307 300 296 297 309 347 251 303 358 154 134 142 178 164 143 164 171 210 203 241 252 232 242 221 177 156 173 154 190 127 137 144 152 162 166
341 339 337 334 330 326 323 319 320 313 306 297 276 255 178 248 247 78 69 111 157 158 175 148 184 187 208 229 206 236 236 255 246 214 174 163 153 132 164 131 141 149 162 166 173
340 338 335 332 329 326 323 321 324 314 304 289 215 191 173 235 324 316 221 199 179 190 165 206 168 154 168 237 297 269 298 303 282 183 166 123 110 207 137 149 149 161 166 168 179
340 337 332 331 327 325 322 321 322 318 311 143 159 208 240 244 292 300 195 259 195 192 150 193 146 68 213 305 355 260 54 6 326 117 142 135 220 146 148 151 158 168 174 175 179
337 334 332 331 327 327 324 320 322 353 108 128 116 183 267 309 286 274 172 212 149 136 169 81 120 170 358 93 357 3 194 168 74 13 142 132 226 151 157 162 162 175 179 179 178
334 332 332 330 330 331 326 317 295 103 134 216 240 5 272 325 309 304 240 208 151 116 110 142 75 124 55 101 210 206 157 42 65 165 156 122 99 156 167 172 170 177 185 183 187
333 332 332 329 331 330 333 7 15 359 24 233 216 258 299 306 290 275 298 138 161 115 153 179 134 188 179 178 189 273 51 123 263 48 133 191 150 178 173 179 174 182 192 200 201
330 330 330 330 330 325 326 83 119 212 305 246 244 250 254 90 299 270 185 137 139 177 123 63 207 202 184 191 198 206 149 252 309 341 150 131 97 182 192 192 188 185 195 204 205
327 328 329 331 326 10 326 148 55 115 276 302 224 236 279 133 212 265 195 145 135 146 173 169 243 151 155 165 174 192 160 176 149 50 40 110 29 160 205 197 209 212 210 213 207
325 324 332 336 22 334 283 324 305 186 42 287 3 340 88 158 281 221 229 146 120 183 154 224 216 160 154 183 146 194 191 178 235 106 196 65 241 239 198 211 215 210 209 208 208
322 321 331 328 282 315 295 327 318 75 15 336 334 116 322 343 309 30 235 39 165 165 119 234 165 163 172 180 152 217 179 144 219 118 102 139 80 265 157 219 222 216 211 213 208
320 320 327 82 207 246 303 313 54 46 267 340 340 357 10 7 354 306 307 83 167 134 149 215 179 164 192 168 164 185 103 51 54 102 95 226 158 252 192 216 227 219 217 212 206
321 321 316 166 231 315 312 41 47 137 344 352 335 2 46 342 348 5 17 52 33 123 182 350 246 251 122 119 123 104 90 336 34 91 218 179 163 237 224 220 217 210 214 210 208
324 327 154 225 281 335 14 52 140 13 4 337 2 1 67 2 349 345 57 30 19 14 119 169 269 184 182 160 168 178 151 156 175 189 220 127 220 249 222 222 227 229 223 210 207
327 344 4 288 307 113 61 66 180 303 320 353 21 40 359 2 22 14 59 7 26 1 66 60 262 310 210 154 144 186 171 179 79 14 92 230 289 295 243 245 204 213 190 207 206
1 344 298 343 146 52 71 154 232 251 350 56 93 24 37 344 36 26 32 333 333 351 210 341 312 265 276 134 155 153 171 115 22 165 199 283 251 235 207 245 213 211 212 218 200
39 46 267 346 54 45 103 219 294 5 71 47 105 82 48 17 17 30 5 67 357 334 23 355 61 286 357 197 165 76 252 53 119 148 166 158 256 217 223 237 231 226 216 207 189
24 60 316 7 45 35 83 307 333 344 27 55 83 94 118 17 40 55 51 61 348 333 356 324 115 272 243 276 300 216 188 160 131 217 199 163 269 222 228 264 250 258 203 190 190
32 273 322 42 82 358 321 335 22 16 25 70 111 96 49 105 82 36 342 97 12 19 349 334 350 357 17 355 12 54 28 115 109 79 195 168 261 299 260 258 283 267 190 174 166
38 16 340 39 43 69 15 359 354 357 57 9 88 67 109 95 5 128 349 358 343 331 351 7 224 170 187 235 246 330 316 85 119 130 208 221 296 313 300 300 311 233 212 191 171
29 35 191 2 2 13 4 344 12 7 4 11 40 160 141 72 54 42 350 334 322 1 13 67 257 221 256 260 247 248 256 244 179 183 169 247 222 264 268 291 296 276 198 176 192
88 56 15 45 325 20 11 359 24 337 2 7 37 350 115 140 149 230 101 318 262 341 9 5 266 292 288 277 223 262 242 239 232 216 257 251 278 267 300 274 290 301 163 187 202
337 66 102 342 2 65 53 6 30 358 35 82 247 87 54 209 200 207 206 213 212 205 329 327 330 301 259 351 331 277 234 243 355 51 353 198 253 341 325 322 310 298 336 245 207